Regional Weather Roundup
Issued by NWS Goodland, KS

Home | Current Version | Previous Version | Graphics & Text | Print | Product List | Glossary On
Versions: 1 2 3 4 5 6 7 8 9 10 11 12 13 14 15 16 17 18 19 20 21 22 23 24 25 26 27 28 29 30 31 32 33 34 35 36 37 38 39 40 41 42 43 44 45 46 47 48 49 50
000
ASUS43 KGLD 260908
RWRGLD

GOODLAND FORECAST AREA HOURLY WEATHER ROUNDUP
NATIONAL WEATHER SERVICE GOODLAND KS
300 AM MDT SAT JUL 26 2014

...OFFICIAL OBSERVATIONS...

CITY           SKY/WX    TMP DP  RH WIND       PRES   REMARKS
GOODLAND KS    CLOUDY    67  64  90 NW3       29.94F
HILL CITY KS   LGT RAIN  77  65  66 SE12      29.83F
IMPERIAL NEB   PTCLDY    73  63  70 S8        29.92F
MCCOOK NEB     CLOUDY    72  67  84 N3        29.87F
AKRON CO       CLEAR     67  50  54 W8        30.03R
BURLINGTON CO  MOCLDY    67  60  78 W7        30.00R
LIMON CO       CLEAR     57  53  86 NE5       30.10F
$$

...UNOFFICIAL OBSERVATIONS...

CITY           SKY/WX    TMP DP  RH WIND       PRES   REMARKS
COLBY KS       CLEAR     66  66 100 W6        29.92S
GOVE KS          N/A     74  32  21 MISG        N/A
LENORA KS        N/A     79  32  18 MISG        N/A
NORTON KS      CLEAR     73  61  64 CALM      29.84F
OBERLIN KS     FAIR      70  66  88 N5        29.85
SHARON SPRINGS   N/A     68  64  88 CALM        N/A
ST FRANCIS KS  CLOUDY    70  59  68 W8        29.93F
TRIBUNE KS     MOCLDY    66  55  68 S10       29.99R
WAKEENEY KS      N/A     71  67  87 MISG        N/A
TRENTON NEB      N/A     71  32  23 S5          N/A
KIT CARSON CO    N/A     67  63  87 CALM        N/A
WRAY CO          N/A     73  59  60 S5        29.96S
$$


USA.gov is the U.S. government's official web portal to all federal, state and local government web resources and services.